User: anonymous   Login
Location: Caltech
(34.1382°N, 118.1253°W)
Time: 06:03:16
(UTC-07:00)
Language:

Iridium 59 - Orbit

View from above orbital plane
View from above orbital plane
View from above satellite
View from above satellite

Ground track
Ground track

The orbit data is extracted from the following two-line orbital elements,

1 25275U 98019D   16211.14787053  .00000007  00000-0 -44088-5 0  9991
2 25275  86.3933  62.4287 0002252  81.6631 278.4820 14.34219360959760
Epoch (UTC): 29 July 2016 03:32:56
Eccentricity: 0.0002252
inclination: 86.3933°
perigee height: 776 km
apogee height: 779 km
right ascension of ascending node: 62.4287°
argument of perigee: 81.6631°
revolutions per day: 14.34219360
mean anomaly at epoch: 278.4820°
orbit number at epoch: 95976

The dashed part of the orbit path shows where the satellite is in the earth's shadow,  

DLR